This is the latest recevied weather packets stored in our database for station/object KA1JKB. If no packets are shown the sender has not sent any weather packets the latest 10 day(s).
| Time | Temp. | Humidity | Pressure | Rain* | Wind** | Luminosity | Snow |
|---|---|---|---|---|---|---|---|
| 1777708457 | 0.56° C | 81% | 1014.3 hPa | 0 mm | - | 0 W/m² | - |
| 1777708155 | 1.11° C | 81% | 1014.2 hPa | 0 mm | - | 0 W/m² | - |
| 1777707853 | 1.11° C | 80% | 1014 hPa | 0 mm | - | 0 W/m² | - |
| 1777707548 | 1.11° C | 80% | 1014.2 hPa | 0 mm | - | 0 W/m² | - |
| 1777707244 | 1.67° C | 79% | 1014.1 hPa | 0 mm | - | 0 W/m² | - |
| 1777706943 | 1.67° C | 78% | 1014.1 hPa | 0 mm | - | 0 W/m² | - |
| 1777706640 | 2.22° C | 77% | 1014.1 hPa | 0 mm | - | 0 W/m² | - |
| 1777706337 | 2.22° C | 76% | 1013.9 hPa | 0 mm | - | 0 W/m² | - |
| 1777706035 | 2.78° C | 75% | 1014 hPa | 0 mm | - | 0 W/m² | - |
| 1777705733 | 2.78° C | 74% | 1013.8 hPa | 0 mm | - | 0 W/m² | - |
| 1777705430 | 3.33° C | 73% | 1013.9 hPa | 0 mm | - | 0 W/m² | - |
| 1777705129 | 3.33° C | 73% | 1013.8 hPa | 0 mm | - | 0 W/m² | - |
| 1777704827 | 3.33° C | 73% | 1014 hPa | 0 mm | - | 0 W/m² | - |
| 1777704524 | 3.33° C | 74% | 1014.1 hPa | 0 mm | - | 0 W/m² | - |
| 1777704222 | 3.33° C | 73% | 1014.1 hPa | 0 mm | - | 0 W/m² | - |
| 1777703919 | 3.33° C | 73% | 1014.1 hPa | 0 mm | - | 0 W/m² | - |
| 1777703617 | 3.33° C | 72% | 1014 hPa | 0 mm | - | 0 W/m² | - |
| 1777703314 | 3.33° C | 72% | 1014.2 hPa | 0 mm | - | 0 W/m² | - |
| 1777703011 | 3.89° C | 72% | 1014.3 hPa | 0 mm | - | 0 W/m² | - |
| 1777702710 | 3.89° C | 71% | 1014.2 hPa | 0 mm | - | 0 W/m² | - |
| 1777702408 | 3.89° C | 72% | 1014.3 hPa | 0 mm | - | 0 W/m² | - |
| 1777702103 | 3.89° C | 70% | 1014.4 hPa | 0 mm | - | 0 W/m² | - |
| 1777701798 | 3.33° C | 73% | 1014.4 hPa | 0 mm | - | 0 W/m² | - |
| 1777701496 | 3.33° C | 76% | 1014.3 hPa | 0 mm | - | 0 W/m² | - |
| 1777701194 | 3.33° C | 76% | 1014.3 hPa | 0 mm | - | 0 W/m² | - |
* Rain latest hour (hover to see other rain measurements)
** Current wind speed in m/s (hover to see current wind gust speed)